Find Starlink 37058

NORAD ID: 68195 Int'l Des: 2026-050 Owner: SPXS Country: US Constellation: starlink operational
LEOCIRCULAR

Current View

Loading 3D Globe...

About Starlink 37058

Starlink 37058 (NORAD 68195) is a starlink constellation satellite (v2 mini) launched Mar 14, 2026 by SPXS of US. It operates in LEO, CIRCULAR orbit with a mass of 575.00 kg.

About Starlink 37058

Description loading...

Upcoming Passes

Passes for default location (London). Set your location on the main map for personalized predictions.

Altitude History

Loading altitude history...

Two-Line Element Set

1 68195U 26050AE 26165.74645748 .00020569 00000-0 61834-3 0 9994
2 68195 53.1584 174.4584 0001295 81.3403 278.7746 15.34394385 14007
Epoch: Jun 14, 2026 • Age: 16 hours

Current Status

Altitude 466.8 km
Velocity 7.64 km/s
Sub-Earth Point 46.42°N, 171.79°E
Launch Date Mar 14, 2026
Age 0.2 years
Type internet

Technical Details

Classification Payload
Mass 575.00 kg
Dry Mass 530.00 kg
Total Mass 575.00 kg
Length 0.30 m
Diameter 4.10 m
Span 29.00 m
Shape Box + pan
Manufacturer SPXS
Bus Type Starlink V2MO
Phase Status In Orbit
Owner/State SPXS/US

Most Searched